Saguache, CO

3:34 AM MST on January 19, 2018 (GMT -0700)
Saguache

Weather History for K04V - April, 2013

Change the Weather History Date:

Sunday, April 7, 2013

  Actual Average (KALS) Record (KALS)
Temperature  
Mean Temperature - -  
Max Temperature - 56 °F 73 °F (1988)
Min Temperature - 21 °F 2 °F (1938)
Moisture  
Dew Point -    
Average Humidity    
Maximum Humidity    
Minimum Humidity    
Precipitation  
Precipitation 0.00 in - - ()
Sea Level Pressure  
Sea Level Pressure 29.92 in    
Wind  
Wind Speed 14 mph (NW)    
Max Wind Speed 25 mph    
Max Gust Speed 51 mph    
Visibility 10 miles    
Events      
Averages and records for this station are not official NWS values.
T = Trace of Precipitation, MM = Missing Value Source: NWS Daily Summary

Daily Weather History Graph

Daily Weather History Graph

Search for Another Location

Airport or City:

Trip Planner

Search our weather history database for the weather conditions in past years. The results will help you decide how hot, cold, wet, or windy it might be!

Date:

Astronomy

Apr. 07, 2013 Rise Set
Actual Time 6:40 AM MDT 7:33 PM MDT
Civil Twilight 6:13 AM MDT 8:00 PM MDT
Nautical Twilight 5:41 AM MDT 8:32 PM MDT
Astronomical Twilight 5:08 AM MDT 9:05 PM MDT
Moon 4:57 AM MDT (4/7) 5:10 PM MDT (4/7)
Length of Visible Light 13h 47m
Length of Day
12h 53m
Waning Crescent, 8% of the Moon is Illuminated
Apr 7
Waning Crescent
Apr 10
New
Apr 18
First Quarter
Apr 25
Full
May 2
Last Quarter

Hourly Weather History & Observations

Time (MDT) Temp. Dew Point Humidity Pressure Visibility Wind Dir Wind Speed Gust Speed Precip Events Conditions
12:16 AM - - N/A% 29.99 in 10.0 mi NW 19.6 mph - N/A   Clear
12:36 AM - - N/A% 30.00 in 10.0 mi NW 18.4 mph 24.2 mph N/A   Clear
12:56 AM - - N/A% 30.00 in 10.0 mi NW 17.3 mph 21.9 mph N/A   Clear
1:16 AM - - N/A% 29.99 in 10.0 mi NW 19.6 mph - N/A   Clear
1:36 AM - - N/A% 29.99 in 10.0 mi NW 17.3 mph - N/A   Clear
1:56 AM - - N/A% 29.98 in 10.0 mi NW 19.6 mph - N/A   Clear
2:16 AM - - N/A% 29.99 in 10.0 mi NW 16.1 mph - N/A   Clear
2:36 AM - - N/A% 29.99 in 10.0 mi NW 11.5 mph - N/A   Clear
2:56 AM - - N/A% 29.98 in 10.0 mi NW 11.5 mph - N/A   Scattered Clouds
3:15 AM - - N/A% 29.98 in 10.0 mi NNW 11.5 mph - N/A   Clear
3:36 AM - - N/A% 29.98 in 10.0 mi NW 11.5 mph - N/A   Scattered Clouds
3:56 AM - - N/A% 29.97 in 10.0 mi NW 13.8 mph 19.6 mph N/A   Clear
4:16 AM - - N/A% 29.96 in 10.0 mi NW 15.0 mph - N/A   Clear
4:36 AM - - N/A% 29.97 in 10.0 mi NW 10.4 mph - N/A   Clear
4:56 AM - - N/A% 29.98 in 10.0 mi Calm Calm - N/A   Clear
5:16 AM - - N/A% 29.97 in 10.0 mi Calm Calm - N/A   Clear
5:36 AM - - N/A% 29.97 in 10.0 mi Calm Calm - N/A   Clear
5:56 AM - - N/A% 29.98 in 10.0 mi Calm Calm - N/A   Clear
6:16 AM - - N/A% 29.98 in 10.0 mi Calm Calm - N/A   Clear
6:36 AM - - N/A% 29.98 in 10.0 mi ENE 3.5 mph - N/A   Clear
6:56 AM - - N/A% 29.98 in 10.0 mi NNE 3.5 mph - N/A   Clear
7:16 AM - - N/A% 29.98 in 10.0 mi Calm Calm - N/A   Clear
7:36 AM - - N/A% 29.99 in 10.0 mi Calm Calm - N/A   Clear
7:55 AM - - N/A% 29.99 in 10.0 mi Calm Calm - N/A   Clear
8:16 AM - - N/A% 29.99 in 10.0 mi WSW 3.5 mph - N/A   Clear
8:36 AM - - N/A% 29.98 in 10.0 mi Calm Calm - N/A   Clear
8:55 AM - - N/A% 29.98 in 10.0 mi NW 10.4 mph - N/A   Clear
9:16 AM - - N/A% 29.98 in 10.0 mi NW 8.1 mph - N/A   Clear
9:36 AM - - N/A% 29.97 in 10.0 mi NW 17.3 mph 25.3 mph N/A   Clear
9:56 AM - - N/A% 29.96 in 10.0 mi NW 20.7 mph 34.5 mph N/A   Clear
10:16 AM - - N/A% 29.96 in 10.0 mi NNW 20.7 mph 32.2 mph N/A   Scattered Clouds
10:36 AM - - N/A% 29.96 in 10.0 mi NW 23.0 mph 28.8 mph N/A   Scattered Clouds
10:56 AM - - N/A% 29.96 in 10.0 mi NW 19.6 mph 26.5 mph N/A   Mostly Cloudy
11:16 AM - - N/A% 29.95 in 10.0 mi NW 23.0 mph 31.1 mph N/A   Mostly Cloudy
11:36 AM - - N/A% 29.95 in 10.0 mi NW 23.0 mph 33.4 mph N/A   Mostly Cloudy
11:56 AM - - N/A% 29.95 in 10.0 mi NW 21.9 mph 32.2 mph N/A   Mostly Cloudy
12:16 PM - - N/A% 29.94 in 10.0 mi NW 19.6 mph 29.9 mph N/A   Scattered Clouds
12:36 PM - - N/A% 29.92 in 10.0 mi WNW 18.4 mph 31.1 mph N/A   Clear
12:56 PM - - N/A% 29.92 in 10.0 mi NNW 25.3 mph 36.8 mph N/A   Scattered Clouds
1:16 PM - - N/A% 29.90 in 10.0 mi WNW 19.6 mph 41.4 mph N/A   Scattered Clouds
1:35 PM - - N/A% 29.90 in 10.0 mi NNW 18.4 mph 29.9 mph N/A   Scattered Clouds
1:55 PM - - N/A% 29.89 in 10.0 mi WNW 24.2 mph 34.5 mph N/A   Clear
2:16 PM - - N/A% 29.90 in 7.0 mi North 19.6 mph 50.6 mph N/A   Mostly Cloudy
2:36 PM - - N/A% 29.88 in 10.0 mi NW 24.2 mph 34.5 mph N/A   Scattered Clouds
2:56 PM - - N/A% 29.87 in 10.0 mi NW 21.9 mph 29.9 mph N/A   Clear
3:15 PM - - N/A% 29.86 in 10.0 mi North 17.3 mph 32.2 mph N/A   Clear
3:36 PM - - N/A% 29.86 in 10.0 mi North 18.4 mph 21.9 mph N/A   Clear
3:56 PM - - N/A% 29.85 in 10.0 mi NW 16.1 mph 32.2 mph N/A   Clear
4:16 PM - - N/A% 29.85 in 10.0 mi NNW 17.3 mph 29.9 mph N/A   Clear
4:36 PM - - N/A% 29.85 in 10.0 mi North 20.7 mph 27.6 mph N/A   Mostly Cloudy
4:56 PM - - N/A% 29.84 in 10.0 mi NNW 17.3 mph - N/A   Mostly Cloudy
5:16 PM - - N/A% 29.85 in 10.0 mi NNW 13.8 mph 19.6 mph N/A   Mostly Cloudy
5:36 PM - - N/A% 29.84 in 10.0 mi NNW 16.1 mph 25.3 mph N/A   Scattered Clouds
5:55 PM - - N/A% 29.84 in 10.0 mi NNW 12.7 mph 19.6 mph N/A   Scattered Clouds
6:16 PM - - N/A% 29.85 in 10.0 mi NW 16.1 mph 25.3 mph N/A   Scattered Clouds
6:35 PM - - N/A% 29.85 in 10.0 mi NNW 17.3 mph 27.6 mph N/A   Scattered Clouds
6:56 PM - - N/A% 29.86 in 10.0 mi North 17.3 mph 23.0 mph N/A   Clear
7:16 PM - - N/A% 29.87 in 10.0 mi North 15.0 mph 20.7 mph N/A   Scattered Clouds
7:36 PM - - N/A% 29.88 in 10.0 mi NW 19.6 mph 29.9 mph N/A   Overcast
7:56 PM - - N/A% 29.88 in 10.0 mi NNW 13.8 mph - N/A   Overcast
8:16 PM - - N/A% 29.88 in 10.0 mi NNW 11.5 mph - N/A   Mostly Cloudy
8:36 PM - - N/A% 29.88 in 10.0 mi NNW 11.5 mph - N/A   Scattered Clouds
8:56 PM - - N/A% 29.88 in 10.0 mi North 9.2 mph - N/A   Clear
9:16 PM - - N/A% 29.88 in 10.0 mi NNW 9.2 mph - N/A   Clear
9:36 PM - - N/A% 29.88 in 10.0 mi West 3.5 mph - N/A   Clear
9:56 PM - - N/A% 29.88 in 10.0 mi Calm Calm - N/A   Clear
10:16 PM - - N/A% 29.88 in 10.0 mi Calm Calm - N/A   Clear
10:36 PM - - N/A% 29.88 in 10.0 mi Calm Calm - N/A   Clear
10:56 PM - - N/A% 29.86 in 10.0 mi NW 3.5 mph - N/A   Clear
11:16 PM - - N/A% 29.86 in 10.0 mi NNW 9.2 mph - N/A   Clear
11:35 PM - - N/A% 29.86 in 10.0 mi NNW 9.2 mph - N/A   Clear
11:55 PM - - N/A% 29.86 in 10.0 mi NW 15.0 mph - N/A   Clear